Regional Weather Roundup
Issued by NWS Wakefield, VA

Home | Current Version | Previous Version | Text Only | Print | Product List | Glossary On
Versions: 1 2 3 4 5 6 7 8 9 10 11 12 13 14 15 16 17 18 19 20 21 22 23 24 25 26 27 28 29 30 31 32 33 34 35 36 37 38 39 40 41 42 43 44 45 46 47 48 49 50
000
ASUS41 KAKQ 281210
RWRAKQ

REGIONAL WEATHER ROUNDUP
NATIONAL WEATHER SERVICE WAKEFIELD VA
800 AM EDT MON JUL 28 2014

Note: "fair" indicates few or no clouds below 12,000 feet with no
significant weather and/or obstructions to visibility. * = Denotes
station may not report precipitation (e.g., rain,snow,etc.),
thunder or fog.

VAZ042-051-052>054-056-281300-
NORTHERN VIRGINIA

CITY           SKY/WX    TMP DP  RH WIND       PRES   REMARKS
WASH NATIONAL  MOSUNNY   79  70  74 SW9       29.62R
DULLES         MOSUNNY   71  67  87 SW5       29.64R
FORT BELVOIR   SUNNY     77  70  79 VRB5      29.63S
QUANTICO       MOSUNNY   78  66  66 W13       29.64R
FREDERICKSBRG* SUNNY     78  68  72 SW8       29.64R
STAFFORD*      SUNNY     77  67  71 W7        29.69R
WARRENTON      SUNNY     76  72  87 SW3       29.65R
CULPEPER*      SUNNY    N/A N/A N/A SW6       29.65S
MANASSAS*      NOT AVBL
LEESBURG*      MOSUNNY   77  68  73 W7        29.65R
WINCHESTER     PTSUNNY   72  63  73 W15       29.66R
$$

VAZ048-049-060>072-079>083-281300-
CENTRAL AND SOUTH CENTRAL VIRGINIA...AND NORTH CENTRAL NORTH CAROLINA

CITY           SKY/WX    TMP DP  RH WIND       PRES   REMARKS
RICHMOND       MOSUNNY   81  67  62 W12       29.67R
CHESTERFIELD*  SUNNY     79  63  57 W9        29.70R
HANOVER        SUNNY     78  67  68 SW7       29.68R
TAPPAHANNOCK*  SUNNY     78  67  69 W8        29.66R
CHARLOTTSVILLE MOSUNNY   76  61  59 SW9       29.68R
ORANGE*        SUNNY     77  63  61 SW7       29.68R
LOUISA*        SUNNY     75  68  78 SW3       29.67R
FARMVILLE*     SUNNY     75  64  69 SW6       29.69R
SOUTH HILL*    SUNNY     79  66  65 SW7       29.78R
ROANOKE RAPIDS NOT AVBL
RALEIGH        MOSUNNY   75  64  68 W6        29.78R
$$

VAZ088>098-281300-
SOUTHEAST VIRGINIA

CITY           SKY/WX    TMP DP  RH WIND       PRES   REMARKS
NORFOLK        PTSUNNY   80  68  66 W10       29.68R
VIRGINIA BEACH PTSUNNY   80  70  71 W15       29.67F
NORFOLK NAVAL  MOSUNNY   81  70  69 SW8       29.69S
WEST POINT*    SUNNY     81  68  65 W9        29.67R
NEWPORT NEWS   SUNNY     83  70  64 W14       29.68R
LANGLEY AFB    SUNNY     80  71  71 SW12      29.67R
FORT EUSTIS    SUNNY     80  70  72 VRB7      29.66S
WILLIAMSBURG*  SUNNY     81  72  74 SW7       29.68R
FRANKLIN*      SUNNY     79  70  73 SW7       29.70R
WAKEFIELD      SUNNY     79  68  69 SW7       29.69R
$$

VAZ020-022-025-037-045-281300-
WESTERN AND SOUTHWEST VIRGINIA

CITY           SKY/WX    TMP DP  RH WIND       PRES   REMARKS
STAUNTON*      SUNNY     74  56  52 W8        29.72S
HOT SPRINGS VA CLOUDY    57  55  94 W23G33    29.83S
LYNCHBURG      SUNNY     74  64  71 SW6       29.75S
DANVILLE       SUNNY     75  65  70 W6        29.77R
MARTINSVILLE   SUNNY     73  64  72 W3        29.82S
ROANOKE        MOSUNNY   73  58  59 W7        29.78S
BLACKSBURG     MOSUNNY   70  63  78 W10G20      N/A
DUBLIN*        PTSUNNY   70  62  75 W9G18     29.86S
MARION*        CLOUDY   N/A N/A N/A W20       29.93R
HILLSVILLE*    SUNNY     65  59  80 W20G28    29.87S
RICHLANDS*     CLOUDY    65  63  91 W9        29.94R
WISE*          CLOUDY    63  61  94 W3        29.96S
ABINGDON*      CLOUDY    67  65  94 W8        29.93R
$$

MDZ021>025-VAZ099-100-281300-
SOUTHERN MARYLAND AND THE DELMARVA PENINSULA

CITY           SKY/WX    TMP DP  RH WIND       PRES   REMARKS
PATUXENT RIVER MOSUNNY   78  70  76 W13       29.62S
BAY BRIDGE APT   N/A     77  72  83 W9        29.60S
LEONARDTOWN    SUNNY     77  68  73 W7        29.65R
DOVER          SUNNY     78  72  81 SW9       29.58R
GEORGETOWN     MOSUNNY   77  73  87 S7        29.61R
EASTON         SUNNY     81  75  83 W6        29.64R
CAMBRIDGE      MOSUNNY   79  72  78 SW6       29.61S
SALISBURY      NOT AVBL
OCEAN CITY     SUNNY     80  74  81 W9        29.61R
WALLOPS ISLAND MOSUNNY   82  74  76 W12G22    29.63R
ACCOMACK*        N/A     79  70  73 W12G17    29.65R
$$

NCZ012>017-030>032-281300-
EASTERN NORTH CAROLINA

CITY           SKY/WX    TMP DP  RH WIND       PRES   REMARKS
ELIZABETH CITY CLOUDY    79  69  71 SW9       29.72R
AHOSKIE*       SUNNY     78  68  72 CALM      29.73S
EDENTON*       CLOUDY    80  73  81 SW7       29.73S
CURRITUCK*     CLOUDY    80  67  65 SW9G16    29.72R
KILL DEVIL HLS CLOUDY    82  73  75 SW7       29.72R
MANTEO         NOT AVBL
CAPE HATTERAS  PTSUNNY   82  79  90 SW14      29.77S FOG
GOLDSBORO      MOSUNNY   79  69  71 W12       29.76R
WASHINGTON     PTSUNNY   78  73  82 SW8       29.75R
GREENVILLE     MOSUNNY   79  70  73 W5        29.78R
NEW BERN       CLOUDY    81  74  79 SW5       29.78R
WILMINGTON     PTSUNNY   82  74  76 SW9       29.81R
$$

VAZ048-281300-
ELSEWHERE

CITY           SKY/WX    TMP DP  RH WIND       PRES   REMARKS
HARRISBURG PA  PTSUNNY   69  65  86 CALM      29.59R
BALTIMORE      MOSUNNY   75  70  84 SW7       29.60S
ANNAPOLIS      SUNNY     78  70  76 VRB7      29.60S
ANDREWS AFB    SUNNY     78  72  83 W8        29.62S
WILMINGTON DE  SUNNY     72  70  93 W7        29.59R
PHILADELPHIA   PTSUNNY   73  69  87 W10       29.58R
WILDWOOD NJ*   MOSUNNY   77  70  78 SW13      29.60S
ATLANTIC CITY  MOSUNNY   75  73  93 SW10      29.58R
HENDERSON NC   SUNNY     74  63  67 W6        29.76R
GREENSBORO     MOSUNNY   72  66  81 W8        29.79S
ROCKY MOUNT    MOSUNNY   79  64  60 SW7       29.75R
FAYETTEVILLE   PTSUNNY   79  67  66 SW8       29.79S
CHARLOTTE      MOSUNNY   72  67  84 W6        29.85R
$$

VAZ100-281300-
MARINE

STATION/POSITION TIME  TEMP    WIND        PRES    WAVE   SWELL
                       AIR SEA DIR/SP/G            HT/PER HT/PER
                 (UTC) (F)     (DEG/KT/KT) (MB)    (FT/S) (FT/S)
44066 TX TWR #4  1200   73 74   80/  6/  8 1002.2F   4/ 6   3/ 6
CAPE MAY NJ      1200   76 77  250/ 12/ 14 1001.6R
LEWES DE         1200   77 70  250/  8/ 11 1001.9R
15NM E FENWICK I 1200   75 73              1002.5R   4/ 6
OCEAN-CITY-INLET 1200   78 71  280/  9/ 11 1002.1F
WACHAPREAGUE VA  1200   80 79  250/  5/ 14 1003.9R
THOMAS POINT MD  1200   78 79  240/ 14/ 16 1003.0R
GOOSES REEF MD   1200   78     270/ 12/ 14 1003.4S
COVE POINT MD    1200   78     280/ 10/ 13 1003.0R
SOLOMONS ISLAND  1200      80                N/A
BISHOPS HEAD MD  1200   78 77  260/ 17/ 20 1002.5R
PINEY POINT MD   1200          290/ 14/ 17   N/A
POTOMAC MD       1200   79     280/ 16/ 19 1002.3S
CAMBRIDGE MD     1200   79 80  250/  8/ 11 1002.6R
LEWISETTA VA     1200   78 79  280/ 13/ 17 1003.1S
RAPPAHANNOCK LGT 1200          250/ 17/ 18 1004.4F
STINGRAY PT      1200   79     260/ 14/ 16 1004.7S
YORK RVR RNG VA  1200   80     260/ 15/ 18 1003.8R
YORKTOWN VA      1200   79 80  240/ 12/ 15 1003.9R
JAMESTOWN VA     1200   78     280/  8/ 12   N/A
DOMINION TERM VA 1200   80     240/ 13/ 16 1004.8R
KIPTOPEKE VA     1200      81  270/ 14/ 19   N/A
CHES BAY BRIDGE  1200   81 78  240/ 17/ 21 1003.9R
CAPE HENRY VA    1200   81     240/ 11/ 17 1003.4F
WILLOUBY STN VA  1200          240/ 16/ 17 1004.0R
S CRANEY ISL VA  1200          230/  7/ 10 1004.9R
CAPE HENRY BUOY  1200      76                N/A     3/ 5
1ST LANDING BUOY 1200   81     260/ 16/ 23 1004.3S
CAPE CHARLES BUO 1200      73                N/A     3/ 5
OFFSHORE WE BUOY 1200      78                N/A     4/ 5
64NM E OF VA BCH 1200   80 78  220/ 19/ 23 1004.6S   4/ 5   2/10
DUCK PIER NC     1200   82 62  230/ 16/ 21 1005.6R
44056 DUCK FRF   1200                        N/A     2/ 9
OREGON INLET NC  1200   82 81  220/ 13/ 18 1006.8S
HATTERAS NC      1200   82 81  230/ 12/ 17 1008.5S
DIAMOND SHLS NC  1200          VRB 21/ 25  1007.9F   6/ 6   2/14
CAPE LOOKOUT NC  1100   82     230/ 12/ 14 1008.8S
$$


USA.gov is the U.S. government's official web portal to all federal, state and local government web resources and services.